Weather History for West Plains, MO

Change the Weather History Date:

Monday, December 10, 2012

  Actual Average Record
Temperature  
Mean Temperature 29 °F 37 °F  
Max Temperature 39 °F 47 °F 67 °F (1970)
Min Temperature 18 °F 27 °F 1 °F (1995)
Degree Days  
Heating Degree Days 36 28  
Month to date heating degree days 138 265  
Since 1 July heating degree days 1082 1117  
Cooling Degree Days 0 0  
Month to date cooling degree days 0 0  
Year to date cooling degree days 1739 1354  
Moisture  
Dew Point 19 °F    
Average Humidity 72    
Maximum Humidity 85    
Minimum Humidity 61    
Precipitation  
Precipitation 0.00 in 0.14 in 2.89 in (1971)
Month to date precipitation 0.54 1.53  
Year to date precipitation 30.46 44.11  
Sea Level Pressure  
Sea Level Pressure 30.00 in    
Wind  
Wind Speed 8 mph (NW)    
Max Wind Speed 17 mph    
Max Gust Speed 23 mph    
Visibility 10 miles    
Events      
T = Trace of Precipitation, MM = Missing Value Source: NWS Daily Summary

Daily Weather History Graph

Daily Weather History Graph

Search for Another Location

Airport:

Trip Planner

Search our weather history database for the weather conditions in past years. The results will help you decide how hot, cold, wet, or windy it might be!

Date:

Astronomy

Dec. 10, 2012 Rise Set
Actual Time 7:10 AM CST 4:51 PM CST
Civil Twilight 6:41 AM CST 5:20 PM CST
Nautical Twilight 6:08 AM CST 5:52 PM CST
Astronomical Twilight 5:37 AM CST 6:24 PM CST
Moon 3:56 AM CST (12/10) 2:38 PM CST (12/10)
Length of Visible Light 10h 38m
Length of Day
9h 41m
Waning Crescent, 10% of the Moon is Illuminated
Dec 10
Waning Crescent
Dec 13
New
Dec 19
First Quarter
Dec 28
Full
Jan 4
Last Quarter

Hourly Weather History & Observations

Time (CST) Temp. Windchill Dew Point Humidity Pressure Visibility Wind Dir Wind Speed Gust Speed Precip Events Conditions
12:53 AM 37.0 °F 30.4 °F 30.9 °F 79% 29.91 in 10.0 mi WNW 9.2 mph - N/A   Overcast
1:29 AM 33.8 °F 25.8 °F 26.6 °F 75% 29.91 in 10.0 mi NW 10.4 mph - N/A   Scattered Clouds
1:53 AM 32.0 °F 23.0 °F 25.0 °F 75% 29.92 in 10.0 mi NW 11.5 mph - N/A   Partly Cloudy
2:53 AM 28.9 °F 18.6 °F 21.9 °F 75% 29.92 in 10.0 mi NW 12.7 mph - N/A   Clear
3:53 AM 28.0 °F 18.1 °F 19.0 °F 69% 29.91 in 10.0 mi NW 11.5 mph - N/A   Clear
4:53 AM 27.0 °F 16.7 °F 18.0 °F 69% 29.92 in 10.0 mi NW 11.5 mph - N/A   Clear
5:53 AM 26.1 °F 17.6 °F 18.0 °F 71% 29.94 in 10.0 mi NW 8.1 mph - N/A   Mostly Cloudy
6:53 AM 25.0 °F 13.6 °F 17.1 °F 72% 29.97 in 10.0 mi NW 12.7 mph - N/A   Overcast
7:53 AM 25.0 °F 14.2 °F 16.0 °F 69% 30.01 in 10.0 mi NW 11.5 mph - N/A   Overcast
8:09 AM 26.6 °F 17.5 °F 17.6 °F 69% 29.99 in 10.0 mi NW 9.2 mph - N/A   Overcast
8:53 AM 25.0 °F 13.6 °F 17.1 °F 72% 30.01 in 10.0 mi NW 12.7 mph 19.6 mph N/A   Overcast
9:53 AM 27.0 °F 17.3 °F 17.1 °F 66% 30.02 in 10.0 mi NW 10.4 mph - N/A   Overcast
10:53 AM 27.0 °F 16.7 °F 17.1 °F 66% 30.02 in 10.0 mi WNW 11.5 mph - N/A   Overcast
11:53 AM 28.0 °F 18.1 °F 19.0 °F 69% 29.99 in 10.0 mi NW 11.5 mph - N/A   Overcast
12:53 PM 30.0 °F 19.5 °F 19.9 °F 66% 29.99 in 10.0 mi NW 13.8 mph - N/A   Overcast
1:53 PM 28.9 °F 18.6 °F 19.0 °F 67% 29.98 in 10.0 mi NW 12.7 mph 23.0 mph N/A   Overcast
2:53 PM 30.0 °F 21.7 °F 19.0 °F 64% 30.00 in 10.0 mi NNW 9.2 mph - N/A   Overcast
3:24 PM 30.2 °F 20.2 °F 19.4 °F 64% 29.97 in 10.0 mi NW 12.7 mph 17.3 mph N/A   Scattered Clouds
3:53 PM 30.9 °F 23.5 °F 19.0 °F 61% 30.01 in 10.0 mi NW 8.1 mph - N/A   Clear
4:53 PM 28.0 °F 22.8 °F 19.0 °F 69% 30.03 in 10.0 mi NW 4.6 mph - N/A   Clear
5:53 PM 26.1 °F 21.9 °F 18.0 °F 71% 30.04 in 10.0 mi NNW 3.5 mph - N/A   Clear
6:53 PM 24.1 °F 18.2 °F 17.1 °F 75% 30.06 in 10.0 mi NW 4.6 mph - N/A   Clear
7:53 PM 21.9 °F 17.2 °F 17.1 °F 82% 30.08 in 10.0 mi West 3.5 mph - N/A   Clear
8:53 PM 21.9 °F - 17.1 °F 82% 30.09 in 10.0 mi Calm Calm - N/A   Clear
9:53 PM 19.0 °F 13.9 °F 15.1 °F 85% 30.09 in 10.0 mi NW 3.5 mph - N/A   Clear
10:53 PM 19.9 °F 13.4 °F 15.1 °F 81% 30.11 in 10.0 mi WNW 4.6 mph - N/A   Clear
11:53 PM 19.9 °F - 16.0 °F 85% 30.12 in 10.0 mi Calm Calm - N/A   Clear